Weather History for Leadville, CO

Change the Weather History Date:

Monday, July 29, 2013

  Actual Average Record
Temperature  
Mean Temperature 53 °F -  
Max Temperature 64 °F 70 °F 78 °F (1993)
Min Temperature 41 °F 39 °F 32 °F (1990)
Degree Days  
Heating Degree Days 12 10  
Month to date heating degree days 243 311  
Since 1 June heating degree days 614 791  
Since 1 July heating degree days 243 311  
Cooling Degree Days 0 0  
Month to date cooling degree days 0 0  
Year to date cooling degree days 0 0  
Since 1 June cooling degree days 0 0  
Growing Degree Days 3 (Base 50)    
Moisture  
Dew Point 41 °F    
Average Humidity 66    
Maximum Humidity 92    
Minimum Humidity 39    
Precipitation  
Precipitation T in 0.07 in 0.55 in (1989)
Month to date precipitation 2.40 1.70  
Year to date precipitation 9.86 6.77  
Sea Level Pressure  
Sea Level Pressure 29.95 in    
Wind  
Wind Speed 8 mph (NNW)    
Max Wind Speed 24 mph    
Max Gust Speed 37 mph    
Visibility 10 miles    
Events      
T = Trace of Precipitation, MM = Missing Value Source: NWS Daily Summary

Daily Weather History Graph

Daily Weather History Graph

Search for Another Location

Airport:

Trip Planner

Search our weather history database for the weather conditions in past years. The results will help you decide how hot, cold, wet, or windy it might be!

Date:

Astronomy

Jul. 29, 2013 Rise Set
Actual Time 6:03 AM MDT 8:19 PM MDT
Civil Twilight 5:32 AM MDT 8:49 PM MDT
Nautical Twilight 4:55 AM MDT 9:26 PM MDT
Astronomical Twilight 4:15 AM MDT 10:07 PM MDT
Moon No Moon Rise 1:44 PM MDT (7/29)
Length of Visible Light 15h 16m
Length of Day
14h 16m
Waning Gibbous, 50% of the Moon is Illuminated
Jul 29
Waning Gibbous
Aug 6
New
Aug 14
First Quarter
Aug 20
Full
Aug 28
Last Quarter

Hourly Weather History & Observations

Time (MDT) Temp. Windchill Dew Point Humidity Pressure Visibility Wind Dir Wind Speed Gust Speed Precip Events Conditions
12:53 AM 46.0 °F - 41.0 °F 83% 29.91 in 10.0 mi Calm Calm - N/A   Overcast
1:53 AM 44.1 °F 42.5 °F 41.0 °F 89% 29.91 in 10.0 mi Variable 3.5 mph - N/A   Partly Cloudy
2:53 AM 45.0 °F - 42.1 °F 90% 29.91 in 10.0 mi Calm Calm - N/A   Clear
3:53 AM 45.0 °F 43.5 °F 42.1 °F 90% 29.90 in 10.0 mi North 3.5 mph - N/A   Mostly Cloudy
4:53 AM 45.0 °F 41.8 °F 41.0 °F 86% 29.89 in 10.0 mi NE 5.8 mph - N/A   Mostly Cloudy
5:53 AM 46.0 °F 41.9 °F 41.0 °F 83% 29.89 in 10.0 mi NNE 8.1 mph - N/A   Overcast
6:53 AM 48.0 °F - 42.1 °F 80% 29.89 in 10.0 mi NW 4.6 mph - N/A   Overcast
7:53 AM 48.9 °F - 43.0 °F 80% 29.91 in 10.0 mi NNW 3.5 mph - N/A   Overcast
8:53 AM 51.1 °F - 44.1 °F 77% 29.93 in 10.0 mi North 4.6 mph - N/A   Overcast
9:53 AM 55.9 °F - 43.0 °F 62% 29.91 in 10.0 mi NW 8.1 mph - N/A   Overcast
10:53 AM 54.0 °F - 43.0 °F 66% 29.94 in 10.0 mi North 9.2 mph - N/A   Overcast
11:53 AM 57.0 °F - 43.0 °F 59% 29.94 in 10.0 mi NNW 8.1 mph - N/A   Mostly Cloudy
12:53 PM 59.0 °F - 42.1 °F 53% 29.95 in 10.0 mi North 9.2 mph 18.4 mph N/A   Partly Cloudy
1:53 PM 62.1 °F - 43.0 °F 50% 29.94 in 10.0 mi North 12.7 mph 19.6 mph N/A   Clear
2:53 PM 55.9 °F - 42.1 °F 60% 30.00 in 10.0 mi NW 13.8 mph 28.8 mph N/A   Overcast
3:53 PM 59.0 °F - 39.0 °F 48% 29.99 in 10.0 mi WNW 12.7 mph 23.0 mph 0.00 in   Overcast
4:53 PM 62.1 °F - 37.9 °F 41% 29.95 in 10.0 mi NW 12.7 mph 21.9 mph N/A   Scattered Clouds
5:53 PM 62.1 °F - 39.0 °F 43% 29.96 in 10.0 mi NNW 10.4 mph - N/A   Clear
6:53 PM 61.0 °F - 39.0 °F 44% 29.94 in 10.0 mi NNW 9.2 mph - N/A   Clear
7:53 PM 55.9 °F - 37.9 °F 51% 29.98 in 10.0 mi NW 10.4 mph 18.4 mph 0.00 in   Scattered Clouds
8:53 PM 55.0 °F - 37.0 °F 51% 30.01 in 10.0 mi NNW 15.0 mph 20.7 mph N/A   Mostly Cloudy
9:53 PM 53.1 °F - 37.0 °F 55% 30.02 in 10.0 mi East 5.8 mph - N/A   Partly Cloudy
10:53 PM 48.0 °F - 37.9 °F 68% 30.07 in 10.0 mi East 4.6 mph - N/A   Clear
11:53 PM 44.1 °F - 37.9 °F 79% 30.09 in 10.0 mi Calm Calm - N/A   Clear